• In Kazakhstan
  • List of Countries
  • For 7 days
  • Water Temperature
  • Satellite Maps
  • Weather Map
  • News
  • Weather Widgets
  • user-avatar
    Login

    Hourly Weather Klagenfurt

    Today, 23 October, Monday

    Time Temperature Precipitation Wind Pressure Humidity
    00:00 +4°C° 0 mm 2 mps 687 mmHg 90%
    01:00 +5°C° 0 mm 1 mps 686 mmHg 91%
    02:00 +5°C° 0 mm 1 mps 686 mmHg 90%
    03:00 +5°C° 0 mm 1 mps 686 mmHg 89%
    04:00 +5°C° 0 mm 1 mps 686 mmHg 88%
    05:00 +5°C° 0 mm 1 mps 686 mmHg 88%
    06:00 +4°C° 0 mm 1 mps 686 mmHg 87%
    07:00 +4°C° 0 mm 1 mps 686 mmHg 87%
    08:00 +5°C° 0 mm 2 mps 687 mmHg 79%
    09:00 +7°C° 0 mm 2 mps 687 mmHg 71%
    10:00 +8°C° 0 mm 3 mps 687 mmHg 63%
    11:00 +9°C° 0 mm 3 mps 688 mmHg 57%
    12:00 +10°C° 0 mm 4 mps 688 mmHg 51%
    13:00 +11°C° 0 mm 4 mps 688 mmHg 45%
    14:00 +10°C° 0 mm 4 mps 688 mmHg 49%
    15:00 +9°C° 0 mm 3 mps 688 mmHg 53%
    16:00 +9°C° 0 mm 3 mps 688 mmHg 57%
    17:00 +7°C° 0 mm 2 mps 688 mmHg 61%
    18:00 +6°C° 0 mm 2 mps 689 mmHg 65%
    19:00 +4°C° 0 mm 2 mps 689 mmHg 69%
    20:00 +4°C° 0 mm 2 mps 689 mmHg 71%
    21:00 +4°C° 0 mm 2 mps 689 mmHg 72%
    22:00 +3°C° 0 mm 2 mps 690 mmHg 73%
    23:00 +3°C° 0 mm 2 mps 690 mmHg 75%

    Tomorrow, 24 October, Tuesday

    Time Temperature Precipitation Wind Pressure Humidity
    00:00 +3°C° 0 mm 2 mps 690 mmHg 76%
    01:00 +3°C° 0 mm 2 mps 691 mmHg 77%
    02:00 +3°C° 0 mm 2 mps 691 mmHg 78%
    03:00 +3°C° 0 mm 2 mps 691 mmHg 79%
    04:00 +2°C° 0 mm 2 mps 691 mmHg 80%
    05:00 +2°C° 0 mm 2 mps 692 mmHg 81%
    06:00 +3°C° 0 mm 1 mps 692 mmHg 81%
    07:00 +3°C° 0 mm 1 mps 692 mmHg 82%
    08:00 +5°C° 0 mm 2 mps 693 mmHg 73%
    09:00 +8°C° 0 mm 2 mps 694 mmHg 64%
    10:00 +10°C° 0 mm 2 mps 694 mmHg 55%
    11:00 +12°C° 0 mm 2 mps 694 mmHg 52%
    12:00 +12°C° 0 mm 3 mps 695 mmHg 49%
    13:00 +13°C° 0 mm 3 mps 695 mmHg 46%
    14:00 +13°C° 0 mm 2 mps 694 mmHg 51%
    15:00 +12°C° 0 mm 2 mps 694 mmHg 56%
    16:00 +12°C° 0 mm 2 mps 694 mmHg 61%
    17:00 +10°C° 0 mm 1 mps 694 mmHg 67%
    18:00 +8°C° 0 mm 1 mps 694 mmHg 73%
    19:00 +6°C° 0 mm 1 mps 694 mmHg 80%
    20:00 +5°C° 0 mm 1 mps 695 mmHg 81%
    21:00 +5°C° 0 mm 1 mps 695 mmHg 82%
    22:00 +5°C° 0 mm 1 mps 695 mmHg 84%
    23:00 +5°C° 0 mm 1 mps 695 mmHg 84%

    Day after tomorrow, 25 October, Wednesday

    Time Temperature Precipitation Wind Pressure Humidity
    00:00 +4°C° 0 mm 1 mps 695 mmHg 84%
    01:00 +4°C° 0 mm 1 mps 695 mmHg 84%
    02:00 +4°C° 0 mm 1 mps 695 mmHg 84%
    03:00 +4°C° 0 mm 1 mps 695 mmHg 84%
    04:00 +5°C° 0 mm 1 mps 695 mmHg 84%
    05:00 +5°C° 0 mm 1 mps 695 mmHg 84%
    06:00 +5°C° 0 mm 1 mps 695 mmHg 84%
    07:00 +5°C° 0 mm 1 mps 695 mmHg 84%
    08:00 +8°C° 0 mm 1 mps 696 mmHg 76%
    09:00 +10°C° 0 mm 1 mps 697 mmHg 67%
    10:00 +13°C° 0 mm 1 mps 697 mmHg 59%
    11:00 +14°C° 0 mm 1 mps 698 mmHg 57%
    12:00 +15°C° 0 mm 1 mps 698 mmHg 55%
    13:00 +16°C° 0 mm 1 mps 698 mmHg 53%
    14:00 +15°C° 0 mm 1 mps 697 mmHg 59%
    15:00 +14°C° 0 mm 1 mps 697 mmHg 65%
    16:00 +13°C° 0 mm 1 mps 697 mmHg 71%
    17:00 +12°C° 0 mm 1 mps 697 mmHg 75%
    18:00 +10°C° 0 mm 1 mps 697 mmHg 80%
    19:00 +9°C° 0 mm 1 mps 697 mmHg 85%
    20:00 +9°C° 0 mm 1 mps 697 mmHg 86%
    21:00 +8°C° 0 mm 1 mps 697 mmHg 86%
    22:00 +8°C° 0 mm 1 mps 697 mmHg 86%
    23:00 +8°C° 0 mm 1 mps 697 mmHg 85%

    26 October, Thursday

    Time Temperature Precipitation Wind Pressure Humidity
    00:00 +8°C° 0 mm 1 mps 697 mmHg 85%
    01:00 +8°C° 0 mm 1 mps 697 mmHg 84%
    02:00 +8°C° 0 mm 1 mps 697 mmHg 84%
    03:00 +7°C° 0 mm 1 mps 697 mmHg 83%
    04:00 +7°C° 0 mm 1 mps 697 mmHg 83%
    05:00 +7°C° 0 mm 1 mps 697 mmHg 82%
    06:00 +7°C° 0 mm 1 mps 697 mmHg 81%
    07:00 +7°C° 0 mm 1 mps 697 mmHg 80%
    08:00 +10°C° 0 mm 1 mps 697 mmHg 72%
    09:00 +12°C° 0 mm 0 mps 698 mmHg 63%
    10:00 +15°C° 0 mm 0 mps 699 mmHg 54%
    11:00 +16°C° 0 mm 0 mps 698 mmHg 52%
    12:00 +19°C° 0 mm 1 mps 698 mmHg 50%
    13:00 +20°C° 0 mm 1 mps 698 mmHg 47%
    14:00 +19°C° 0 mm 1 mps 698 mmHg 54%
    15:00 +18°C° 0 mm 1 mps 697 mmHg 61%
    16:00 +16°C° 0 mm 1 mps 697 mmHg 68%
    17:00 +14°C° 0 mm 1 mps 696 mmHg 73%
    18:00 +12°C° 0 mm 1 mps 696 mmHg 78%
    19:00 +11°C° 0 mm 1 mps 696 mmHg 84%
    20:00 +10°C° 0 mm 1 mps 696 mmHg 84%
    21:00 +10°C° 0 mm 1 mps 696 mmHg 84%
    22:00 +10°C° 0 mm 1 mps 695 mmHg 83%
    23:00 +9°C° 0 mm 1 mps 695 mmHg 82%

    27 October, Friday

    Time Temperature Precipitation Wind Pressure Humidity
    00:00 +9°C° 0 mm 1 mps 695 mmHg 81%
    01:00 +9°C° 0 mm 1 mps 695 mmHg 80%
    02:00 +9°C° 0 mm 1 mps 694 mmHg 79%
    03:00 +9°C° 0 mm 1 mps 694 mmHg 78%
    04:00 +8°C° 0 mm 1 mps 693 mmHg 77%
    05:00 +8°C° 0 mm 1 mps 693 mmHg 77%
    06:00 +8°C° 0 mm 1 mps 693 mmHg 76%
    07:00 +8°C° 0 mm 1 mps 692 mmHg 75%
    08:00 +10°C° 0 mm 1 mps 693 mmHg 69%
    09:00 +13°C° 0 mm 1 mps 693 mmHg 63%
    10:00 +15°C° 0 mm 1 mps 693 mmHg 57%
    11:00 +16°C° 0 mm 1 mps 692 mmHg 54%
    12:00 +18°C° 0 mm 1 mps 692 mmHg 52%
    13:00 +19°C° 0 mm 1 mps 691 mmHg 49%
    14:00 +18°C° 0 mm 1 mps 691 mmHg 55%
    15:00 +16°C° 0 mm 1 mps 690 mmHg 61%
    16:00 +14°C° 0 mm 1 mps 690 mmHg 67%
    17:00 +13°C° 0.1 mm 1 mps 690 mmHg 72%
    18:00 +12°C° 0.1 mm 1 mps 690 mmHg 76%
    19:00 +11°C° 0.1 mm 1 mps 690 mmHg 81%
    20:00 +10°C° 0.2 mm 1 mps 691 mmHg 83%
    21:00 +8°C° 0.2 mm 2 mps 691 mmHg 84%
    22:00 +8°C° 0.2 mm 2 mps 692 mmHg 85%
    23:00 +7°C° 0 mm 2 mps 692 mmHg 85%

    28 October, Saturday

    Time Temperature Precipitation Wind Pressure Humidity
    00:00 +7°C° 0 mm 1 mps 691 mmHg 85%
    01:00 +6°C° 0 mm 1 mps 691 mmHg 84%
    02:00 +5°C° 0 mm 1 mps 691 mmHg 84%
    03:00 +5°C° 0 mm 1 mps 691 mmHg 83%
    04:00 +4°C° 0 mm 1 mps 691 mmHg 83%
    05:00 +4°C° 0 mm 1 mps 691 mmHg 82%
    06:00 +4°C° 0 mm 1 mps 691 mmHg 82%
    07:00 +4°C° 0 mm 1 mps 691 mmHg 81%
    08:00 +6°C° 0 mm 1 mps 691 mmHg 74%
    09:00 +8°C° 0 mm 1 mps 692 mmHg 67%
    10:00 +10°C° 0 mm 1 mps 692 mmHg 60%
    11:00 +11°C° 0 mm 1 mps 691 mmHg 54%
    12:00 +12°C° 0 mm 2 mps 691 mmHg 49%
    13:00 +13°C° 0 mm 2 mps 690 mmHg 44%
    14:00 +12°C° 0 mm 2 mps 690 mmHg 49%
    15:00 +11°C° 0 mm 1 mps 689 mmHg 55%
    16:00 +10°C° 0 mm 1 mps 688 mmHg 60%
    17:00 +9°C° 0 mm 1 mps 688 mmHg 66%
    18:00 +7°C° 0 mm 1 mps 688 mmHg 72%
    19:00 +6°C° 0 mm 1 mps 688 mmHg 78%
    20:00 +6°C° 0 mm 1 mps 688 mmHg 79%
    21:00 +5°C° 0 mm 1 mps 688 mmHg 79%
    22:00 +5°C° 0 mm 1 mps 688 mmHg 79%
    23:00 +5°C° 0 mm 1 mps 688 mmHg 79%

    29 October, Sunday

    Time Temperature Precipitation Wind Pressure Humidity
    00:00 +5°C° 0 mm 1 mps 688 mmHg 78%
    01:00 +4°C° 0 mm 1 mps 687 mmHg 78%
    02:00 +4°C° 0 mm 1 mps 687 mmHg 77%
    03:00 +4°C° 0 mm 1 mps 687 mmHg 76%
    04:00 +4°C° 0 mm 1 mps 687 mmHg 75%
    05:00 +4°C° 0 mm 1 mps 688 mmHg 75%
    06:00 +4°C° 0 mm 1 mps 688 mmHg 75%
    07:00 +4°C° 0 mm 1 mps 688 mmHg 75%
    08:00 +7°C° 0 mm 1 mps 689 mmHg 66%
    09:00 +8°C° 0 mm 2 mps 690 mmHg 58%
    10:00 +12°C° 0 mm 2 mps 691 mmHg 50%
    11:00 +12°C° 0 mm 2 mps 691 mmHg 47%
    12:00 +13°C° 0 mm 2 mps 691 mmHg 44%
    13:00 +14°C° 0 mm 2 mps 691 mmHg 41%
    14:00 +13°C° 0 mm 2 mps 691 mmHg 46%
    15:00 +12°C° 0 mm 1 mps 690 mmHg 51%
    16:00 +11°C° 0 mm 1 mps 690 mmHg 56%
    17:00 +9°C° 0 mm 1 mps 690 mmHg 60%
    18:00 +7°C° 0 mm 1 mps 691 mmHg 64%
    19:00 +5°C° 0 mm 1 mps 691 mmHg 69%
    20:00 +5°C° 0 mm 1 mps 691 mmHg 70%
    21:00 +4°C° 0 mm 1 mps 691 mmHg 71%
    22:00 +4°C° 0 mm 1 mps 692 mmHg 72%
    23:00 +4°C° 0 mm 1 mps 691 mmHg 73%
    Show more